Wetbulb
44.08 42.25 41.91 42.74 43.63 43.74 43.96 44.43 44.79 45.14 45.72 46.78 47.79 48.78 48.70 49.52 50.54 51.54 51.31 51.32 51.31 49.65 48.25 47.67 48.15 48.06 48.90 48.15 47.65 46.77 45.88 45.54 40.22 39.39 41.06 41.66 40.39 39.99 40.22 41.41 41.86 41.66 42.62
43.52 42.14 42.03 42.61 42.89 43.41 43.58 44.15 44.39 44.37 45.21 46.21 47.19 48.38 48.65 50.40 51.24 51.15 49.99 50.34 50.46 49.76 49.20 48.10 48.33 49.50 46.58 47.72 46.76 44.93 45.19 45.27 43.19 39.06 39.19 37.99 38.26 38.79 38.74 39.09 39.57 40.76 41.11
42.44 41.79 41.05 41.59 42.19 42.86 43.36 43.69 43.89 44.05 44.66 45.82 46.62 47.56 48.42 50.55 51.00 50.92 49.67 49.76 50.49 51.38 50.50 49.28 47.35 47.81 46.54 44.84 44.62 43.59 44.48 44.08 43.27 40.73 37.50 37.78 37.16 37.45 35.45 35.31 35.67 34.99 36.10
41.18 40.93 40.82 41.20 42.13 42.92 43.32 43.40 43.61 44.06 44.63 45.26 45.84 46.88 48.24 50.53 50.46 50.57 48.28 49.48 50.12 51.13 50.61 50.49 48.81 47.44 47.12 46.05 44.64 44.04 44.08 42.86 41.78 39.62 37.45 36.23 35.84 36.01 35.94 33.54 32.75 31.67 32.00
41.20 40.86 40.83 41.06 41.67 42.19 42.61 42.77 43.23 43.69 44.74 45.23 45.32 45.97 47.62 49.82 50.02 50.01 48.41 47.78 49.29 49.92 50.02 49.56 48.74 45.34 42.28 44.53 45.18 43.69 43.54 42.17 40.87 38.70 37.09 35.18 32.89 32.57 33.69 32.95 32.23 31.89 32.38
41.11 40.74 40.63 40.95 41.72 41.80 41.70 42.23 42.60 42.94 43.93 44.89 44.76 45.15 46.36 47.75 44.78 44.15 46.45 47.51 47.51 48.73 48.30 47.55 45.84 38.57 41.77 41.70 42.18 42.64 43.57 41.91 40.43 39.73 38.25 36.87 34.71 35.50 32.81 33.35 31.94 31.78 32.13
40.49 39.60 40.17 40.56 40.79 41.39 41.83 42.03 42.14 42.63 43.88 44.10 44.53 44.83 44.93 46.08 41.50 42.60 42.22 47.55 47.21 47.06 46.99 44.92 43.15 42.80 40.65 43.76 41.23 41.28 40.95 41.61 42.63 42.92 40.07 39.93 37.30 37.23 35.21 32.78 32.63 32.62 32.20
39.85 39.31 39.93 39.72 39.76 39.99 40.63 41.53 41.55 42.35 42.96 43.22 43.77 44.36 44.36 44.72 40.34 41.66 40.24 47.44 47.40 47.15 46.36 45.11 43.51 42.79 43.54 43.51 42.66 42.32 42.23 41.84 42.05 42.50 43.21 42.00 40.32 38.78 38.20 36.91 34.80 31.86 31.57
39.49 39.39 39.70 40.09 39.13 39.45 40.12 40.36 41.32 41.49 41.43 42.55 43.24 43.86 43.45 43.48 39.59 40.94 43.29 46.85 45.69 46.22 46.47 46.42 44.57 42.46 39.93 40.34 41.20 40.26 39.24 39.34 41.13 41.49 42.26 40.90 40.20 39.55 37.60 34.76 32.74 32.89 31.37
39.37 39.35 39.73 39.99 39.75 39.57 40.10 39.85 38.21 40.28 39.70 40.01 40.82 42.76 39.59 42.46 39.39 40.13 43.37 44.64 44.69 44.36 44.95 44.98 36.56 43.69 39.39 40.29 42.14 38.24 36.77 37.85 37.79 37.16 37.76 39.31 39.26 38.51 37.00 38.80 35.32 34.06 31.93
37.81 37.53 38.64 39.18 39.02 40.13 39.33 37.00 38.22 37.19 37.17 37.19 37.56 38.28 39.54 40.49 40.39 39.67 41.81 42.65 42.84 37.53 38.25 37.89 38.25 40.00 40.03 40.45 41.21 40.30 39.73 37.22 37.66 35.70 34.78 34.59 34.76 35.53 35.62 37.02 36.17 37.28 33.70
36.36 36.14 35.64 36.17 37.23 37.42 36.70 34.57 35.18 35.62 35.35 35.50 36.24 34.97 34.74 37.13 37.12 39.91 40.91 41.80 42.66 39.11 37.46 35.70 36.95 39.45 40.14 40.41 39.86 40.42 39.42 36.81 35.86 35.14 34.78 33.85 33.94 34.09 34.61 35.12 33.42 33.46 32.84
35.40 34.93 34.37 33.89 34.37 34.57 35.44 34.47 34.46 34.91 37.42 36.59 36.97 36.84 35.30 33.33 34.59 40.09 39.86 39.77 39.83 36.08 33.88 36.36 38.55 39.09 39.62 39.31 39.86 39.36 35.30 35.86 35.50 34.79 35.48 35.89 35.46 35.21 34.08 32.99 32.80 33.72 32.80
35.10 34.19 34.13 34.62 33.21 32.77 33.45 34.84 36.05 36.96 37.01 36.07 36.19 36.21 35.32 33.67 33.69 33.33 34.05 36.60 36.00 35.86 35.50 34.61 36.19 36.54 37.02 36.13 34.25 37.67 36.04 36.59 36.33 36.71 36.69 34.78 33.13 32.95 33.10 33.05 32.63 32.83 32.36
34.23 33.86 34.03 34.60 34.82 34.48 34.74 35.66 36.58 36.69 38.20 36.92 37.15 37.10 35.48 34.07 34.02 36.07 35.38 34.04 34.59 34.91 33.14 32.96 33.14 32.96 32.96 32.78 32.96 34.07 33.87 34.05 35.14 34.07 34.07 33.14 32.96 32.92 32.72 32.71 32.40 32.13 31.88
34.39 34.29 34.60 34.78 34.81 34.95 34.83 34.08 36.62 37.23 37.44 37.47 37.52 36.88 32.78 36.43 37.75 38.04 38.29 37.48 37.30 36.59 33.33 33.16 32.96 32.78 33.33 33.14 33.14 32.96 32.96 33.69 33.87 33.69 33.69 33.51 33.33 32.87 32.53 32.00 32.21 32.51 31.99
34.97 34.27 34.60 34.57 34.59 34.29 34.50 34.65 32.93 35.12 37.12 37.30 37.12 37.10 37.11 37.03 38.03 38.44 38.78 38.14 37.47 36.64 32.99 32.62 32.78 32.60 32.60 32.60 32.60 32.60 32.60 33.14 33.33 33.69 33.69 33.51 33.33 32.95 32.78 32.30 32.42 32.59 32.04
34.71 34.22 34.71 34.84 34.99 34.91 34.91 34.62 34.36 33.40 32.33 32.44 35.36 35.65 36.30 36.93 37.75 37.83 37.45 36.23 33.34 34.17 32.78 32.81 32.62 32.42 32.42 32.42 32.40 32.40 32.42 32.40 32.42 32.60 32.78 32.96 32.78 32.60 32.40 32.54 32.48 32.47 32.32
33.67 34.12 34.72 34.64 34.72 34.57 34.20 33.85 33.46 32.69 31.73 31.20 32.44 33.90 34.42 36.60 36.76 37.14 36.82 33.14 32.99 32.62 32.60 32.42 32.40 32.40 32.40 32.42 32.42 32.42 32.42 32.42 32.42 32.42 32.42 32.42 32.60 32.80 32.43 32.42 32.54 32.30 32.48
33.82 33.53 33.94 33.87 33.37 33.42 33.41 32.90 32.54 31.53 30.87 30.85 30.48 31.41 31.89 33.19 32.32 31.94 32.36 32.78 32.53 32.32 32.37 32.33 32.22 32.45 32.27 32.42 32.43 32.43 32.42 32.43 32.24 32.24 32.24 32.24 32.24 32.42 32.42 32.42 32.42 32.18 31.95
33.37 33.05 33.19 33.25 33.16 32.98 32.84 32.50 32.01 30.74 28.50 27.41 25.79 30.41 32.70 31.66 30.53 30.36 30.38 30.58 30.93 30.95 31.50 31.85 31.70 31.91 32.18 32.24 32.27 32.45 32.42 32.21 32.21 32.22 32.27 32.25 32.22 32.04 32.22 32.21 32.22 32.19 32.01
32.84 32.38 32.56 32.00 31.77 31.82 31.85 31.17 30.02 28.73 27.81 27.23 28.57 30.95 31.60 29.78 28.78 28.18 27.69 26.98 26.66 26.22 27.18 30.19 29.31 28.24 29.36 30.27 31.35 31.53 31.71 31.53 31.76 31.98 32.01 32.03 32.04 32.03 32.01 31.80 31.80 31.80 31.79
30.88 30.37 30.34 30.38 30.60 29.98 29.39 29.25 28.17 27.02 26.04 25.42 25.60 25.18 24.91 24.28 24.46 22.87 21.25 20.70 20.25 20.25 21.41 23.88 24.15 21.87 22.17 24.56 26.64 25.81 25.91 24.90 27.07 30.84 31.03 31.59 31.61 32.00 32.01 31.80 31.62 31.62 31.62
29.56 28.58 28.40 27.58 27.92 27.99 27.54 26.48 25.53 24.70 23.14 21.06 19.99 18.77 17.16 15.15 14.37 13.07 11.06 11.07 10.36 8.22 8.00 7.64 8.72 10.52 12.38 13.45 14.82 11.78 10.79 17.05 20.37 22.91 23.37 28.49 30.32 31.05 31.43 31.44 31.43 31.76 31.59
27.70 27.01 26.94 25.38 24.87 23.59 21.93 21.54 20.51 19.16 17.95 16.86 15.54 14.43 12.87 12.26 10.18 7.76 5.87 6.23 4.43 5.63 4.32 3.77 4.50 4.21 6.22 5.31 3.31 2.44 5.62 8.24 6.55 9.68 9.86 13.46 17.91 22.13 29.26 30.42 30.99 31.16 31.38
24.74 24.17 23.29 21.98 20.88 20.99 19.64 18.17 16.69 15.69 13.98 13.05 12.34 11.61 10.87 9.68 7.55 4.84 2.50 2.43 1.58 0.20 -1.55 -2.09 -1.00 0.39 1.45 2.16 1.96 6.57 9.05 13.16 8.23 8.54 4.01 6.15 8.71 12.82 18.04 24.30 28.05 29.23 30.39
MSLP
1014.22 1014.89 1015.47 1016.00 1016.52 1017.04 1017.48 1017.82 1018.13 1018.38 1018.89 1019.43 1019.64 1019.75 1019.71 1019.84 1019.92 1020.04 1020.27 1020.46 1020.58 1020.88 1020.93 1021.06 1021.49 1021.77 1022.28 1022.65 1022.78 1023.19 1023.79 1024.42 1025.62 1027.77 1028.32 1028.71 1028.97 1028.93 1028.86 1028.73 1029.00 1028.94 1029.25
1014.06 1014.85 1015.46 1015.90 1016.41 1016.96 1017.42 1017.79 1018.16 1018.41 1018.79 1019.21 1019.53 1019.80 1019.86 1019.85 1019.91 1020.16 1020.36 1020.50 1020.61 1021.01 1021.25 1021.56 1021.87 1022.15 1022.64 1023.00 1023.40 1023.86 1024.42 1024.97 1025.45 1026.91 1028.28 1029.07 1029.46 1029.59 1029.45 1029.34 1029.45 1029.64 1029.97
1014.10 1014.84 1015.59 1016.12 1016.50 1016.83 1017.24 1017.70 1018.15 1018.43 1018.77 1019.16 1019.57 1019.67 1019.92 1019.93 1019.93 1020.32 1020.34 1020.69 1020.80 1021.02 1021.33 1021.56 1022.06 1022.40 1022.85 1023.28 1023.72 1024.22 1024.71 1025.43 1026.25 1026.81 1028.01 1029.15 1029.80 1029.92 1030.13 1030.18 1030.30 1030.56 1030.48
1013.83 1014.67 1015.38 1015.92 1016.34 1016.66 1017.13 1017.58 1017.98 1018.37 1018.75 1019.03 1019.37 1019.74 1019.80 1019.92 1020.10 1020.35 1020.65 1020.88 1021.01 1021.10 1021.35 1021.48 1021.98 1022.50 1022.92 1023.40 1023.90 1024.39 1024.92 1025.68 1026.44 1027.27 1028.10 1029.03 1029.63 1030.13 1030.33 1030.71 1031.24 1031.38 1031.46
1013.62 1014.37 1015.07 1015.65 1016.22 1016.66 1017.14 1017.57 1017.99 1018.31 1018.77 1018.98 1019.28 1019.59 1019.68 1019.77 1020.18 1020.35 1020.67 1020.95 1021.03 1021.21 1021.44 1021.69 1021.88 1022.26 1022.89 1023.17 1023.64 1024.41 1025.03 1025.76 1026.45 1027.21 1027.97 1028.82 1029.64 1030.14 1030.11 1030.70 1031.33 1031.60 1031.85
1013.03 1013.81 1014.62 1015.38 1015.96 1016.51 1017.03 1017.40 1017.93 1018.32 1018.77 1018.96 1019.31 1019.51 1019.75 1019.88 1020.16 1020.44 1020.64 1020.97 1021.15 1021.31 1021.60 1021.90 1022.30 1022.80 1023.07 1023.39 1023.67 1024.00 1024.27 1025.02 1026.05 1026.82 1027.55 1028.06 1028.62 1029.24 1029.80 1030.31 1031.15 1031.76 1031.92
1012.73 1013.47 1014.15 1014.82 1015.48 1016.01 1016.64 1017.13 1017.60 1018.14 1018.52 1018.91 1019.30 1019.47 1019.76 1020.08 1020.25 1020.60 1020.85 1021.05 1021.30 1021.50 1021.72 1022.04 1022.48 1022.90 1023.17 1023.45 1024.02 1024.32 1024.64 1024.87 1024.89 1025.25 1025.94 1026.52 1027.42 1027.67 1028.66 1029.92 1030.45 1030.97 1031.24
1012.40 1013.00 1013.59 1014.19 1014.92 1015.60 1016.24 1016.63 1017.16 1017.68 1018.14 1018.60 1019.03 1019.35 1019.76 1020.09 1020.34 1020.59 1020.83 1021.06 1021.32 1021.54 1021.73 1022.05 1022.40 1022.83 1023.11 1023.66 1024.12 1024.50 1024.81 1025.13 1025.17 1025.28 1025.55 1026.11 1026.70 1027.49 1028.13 1028.72 1029.65 1030.76 1031.42
1011.94 1012.46 1013.14 1013.93 1014.64 1015.15 1015.68 1016.33 1016.76 1017.32 1017.88 1018.20 1018.59 1019.06 1019.44 1019.96 1020.31 1020.61 1020.93 1021.10 1021.28 1021.50 1021.75 1022.02 1022.28 1022.71 1022.98 1023.36 1023.94 1024.36 1024.77 1024.86 1025.08 1025.35 1025.56 1025.99 1026.55 1027.18 1027.96 1028.90 1029.88 1030.43 1031.00
1011.27 1011.91 1012.65 1013.34 1014.19 1014.86 1015.37 1016.01 1016.47 1017.11 1017.62 1018.10 1018.60 1018.83 1019.36 1019.89 1020.14 1020.46 1020.86 1021.13 1021.42 1021.61 1021.76 1022.13 1022.25 1022.30 1022.78 1023.17 1023.59 1024.10 1024.69 1024.47 1024.89 1025.38 1025.79 1026.14 1026.51 1026.97 1027.27 1027.38 1028.35 1029.27 1030.12
1010.66 1011.62 1012.22 1012.79 1013.57 1014.29 1015.18 1015.83 1016.31 1017.08 1017.83 1018.37 1018.85 1018.99 1019.23 1019.65 1020.25 1020.42 1020.81 1021.07 1021.27 1021.71 1021.92 1021.99 1022.02 1022.03 1022.40 1022.83 1023.15 1023.53 1023.76 1024.28 1024.77 1025.26 1025.81 1026.40 1026.77 1027.15 1027.42 1027.44 1027.54 1027.69 1028.53
1010.15 1011.16 1012.15 1012.80 1013.51 1014.44 1015.20 1015.85 1016.42 1016.89 1017.78 1018.47 1018.97 1019.39 1019.37 1019.68 1019.98 1020.35 1020.66 1020.98 1021.25 1021.56 1021.91 1021.77 1021.89 1021.94 1022.21 1022.55 1023.00 1023.20 1023.50 1024.03 1024.68 1025.19 1025.75 1026.14 1026.56 1026.75 1026.91 1027.19 1027.49 1027.78 1027.98
1009.88 1010.75 1011.49 1012.54 1013.30 1014.02 1015.03 1015.95 1016.66 1016.98 1017.57 1018.18 1018.81 1018.98 1019.28 1019.47 1019.91 1020.37 1020.54 1020.73 1021.14 1021.48 1021.67 1021.76 1021.77 1021.87 1022.09 1022.37 1022.47 1022.88 1023.62 1023.93 1024.40 1024.96 1025.22 1025.37 1025.53 1025.89 1026.52 1027.18 1027.49 1027.74 1028.04
1009.66 1010.52 1011.34 1012.18 1013.19 1014.16 1014.62 1015.44 1016.40 1016.77 1017.22 1017.82 1018.42 1018.89 1019.20 1019.38 1019.82 1020.18 1020.45 1020.62 1021.00 1021.41 1021.58 1021.70 1021.81 1021.99 1022.20 1022.41 1022.62 1022.88 1023.20 1023.56 1023.85 1024.06 1024.32 1024.70 1025.30 1025.88 1026.33 1026.64 1027.19 1027.62 1027.96
1009.39 1010.44 1011.35 1012.14 1012.81 1014.00 1014.69 1014.93 1015.73 1016.37 1016.56 1017.03 1017.70 1018.39 1018.71 1019.20 1019.38 1019.64 1020.20 1020.49 1020.63 1020.92 1021.50 1021.80 1022.01 1022.29 1022.51 1022.62 1022.67 1022.71 1023.05 1023.38 1023.67 1023.83 1024.18 1024.66 1025.10 1025.46 1025.88 1026.29 1026.73 1027.22 1027.38
1009.34 1010.23 1011.12 1011.87 1012.75 1013.63 1014.66 1015.55 1015.98 1016.36 1016.95 1017.27 1017.70 1017.93 1018.47 1018.53 1019.08 1019.52 1019.92 1020.23 1020.41 1020.79 1021.20 1021.66 1021.83 1022.22 1022.42 1022.66 1022.80 1022.80 1022.98 1023.20 1023.42 1023.64 1023.99 1024.32 1024.73 1025.14 1025.51 1026.03 1026.35 1026.60 1026.86
1008.56 1009.78 1010.92 1011.80 1012.44 1013.28 1014.27 1014.87 1015.74 1016.77 1017.24 1017.78 1017.64 1017.71 1018.18 1018.86 1019.27 1019.47 1019.87 1020.27 1020.45 1020.81 1021.05 1021.39 1021.73 1022.14 1022.26 1022.61 1022.88 1022.95 1023.05 1023.03 1023.17 1023.41 1023.66 1023.97 1024.34 1024.65 1025.05 1025.41 1025.75 1026.07 1026.22
1008.89 1009.63 1010.35 1011.42 1012.30 1013.21 1014.01 1014.84 1015.38 1016.05 1017.20 1018.20 1018.03 1017.99 1018.39 1018.79 1019.27 1019.54 1019.95 1020.41 1020.92 1020.90 1021.22 1021.66 1022.12 1022.39 1022.50 1022.75 1022.77 1022.92 1023.06 1023.25 1023.30 1023.32 1023.59 1023.88 1024.24 1024.54 1024.73 1024.86 1025.13 1025.35 1025.59
1008.35 1009.70 1010.63 1011.59 1012.43 1012.95 1013.61 1014.64 1015.71 1016.55 1017.41 1017.80 1018.46 1018.71 1018.67 1018.91 1019.02 1019.73 1020.23 1020.46 1021.06 1021.37 1021.69 1022.02 1022.30 1022.52 1022.84 1022.99 1022.96 1022.93 1023.07 1023.32 1023.48 1023.58 1023.65 1023.91 1024.11 1024.29 1024.52 1024.72 1024.85 1025.00 1025.20
1007.71 1008.56 1009.92 1011.18 1012.53 1013.40 1013.90 1014.48 1015.38 1016.54 1017.39 1017.81 1018.48 1018.73 1018.92 1018.80 1019.22 1020.10 1020.74 1021.00 1021.38 1021.75 1022.11 1022.29 1022.64 1022.93 1023.20 1023.32 1023.34 1023.27 1023.30 1023.50 1023.68 1023.74 1023.80 1023.83 1024.02 1024.22 1024.42 1024.61 1024.77 1024.90 1024.93
1007.47 1008.38 1009.44 1010.81 1011.69 1013.07 1014.35 1015.05 1015.37 1016.06 1017.00 1018.09 1018.45 1018.98 1018.89 1018.98 1019.54 1020.29 1021.18 1021.58 1021.95 1022.26 1022.50 1022.75 1023.02 1023.30 1023.61 1023.74 1023.72 1023.76 1023.74 1023.89 1023.94 1024.02 1024.02 1024.04 1024.10 1024.21 1024.33 1024.44 1024.57 1024.67 1024.76
1007.57 1008.25 1009.25 1010.56 1011.66 1012.90 1014.53 1015.14 1015.72 1016.27 1017.41 1018.02 1018.78 1019.10 1019.28 1019.66 1020.21 1020.89 1021.73 1022.27 1022.70 1022.92 1022.96 1023.02 1023.38 1023.72 1024.00 1024.08 1023.98 1024.11 1024.35 1024.36 1024.35 1024.30 1024.30 1024.27 1024.29 1024.31 1024.40 1024.42 1024.41 1024.41 1024.47
1007.68 1008.63 1009.37 1010.62 1011.67 1013.18 1014.40 1015.20 1015.91 1016.67 1017.87 1018.72 1019.04 1019.34 1020.10 1020.89 1021.27 1021.92 1022.70 1023.36 1023.55 1023.83 1023.92 1023.78 1024.05 1024.51 1024.76 1024.72 1024.65 1024.71 1024.94 1025.13 1024.95 1024.55 1024.55 1024.49 1024.45 1024.47 1024.45 1024.40 1024.32 1024.28 1024.29
1007.51 1008.62 1009.68 1010.68 1012.31 1013.59 1014.17 1015.03 1016.55 1017.51 1018.48 1019.23 1019.72 1020.39 1021.27 1022.07 1022.78 1023.29 1023.90 1024.41 1024.81 1025.18 1025.19 1025.27 1025.46 1025.73 1025.74 1025.70 1025.71 1025.68 1025.70 1025.60 1025.47 1025.31 1025.11 1024.76 1024.89 1024.82 1024.67 1024.49 1024.27 1024.16 1024.08
1007.96 1009.12 1010.12 1011.29 1012.82 1013.52 1014.83 1016.03 1017.32 1018.40 1019.03 1019.62 1020.73 1021.63 1022.34 1023.04 1023.71 1024.24 1024.93 1025.47 1025.76 1025.84 1026.04 1026.08 1026.04 1026.10 1026.17 1026.23 1026.32 1026.18 1025.97 1025.76 1025.66 1025.61 1025.61 1025.52 1025.41 1025.31 1025.09 1024.79 1024.48 1024.13 1023.91
1008.98 1009.94 1010.94 1012.04 1013.12 1014.60 1015.58 1016.51 1017.77 1018.77 1019.70 1020.53 1021.40 1022.28 1022.97 1023.55 1024.23 1024.89 1025.57 1025.91 1026.22 1026.52 1026.75 1026.83 1026.69 1026.69 1026.64 1026.56 1026.37 1026.12 1025.89 1025.73 1025.70 1025.68 1025.67 1025.88 1025.99 1025.98 1025.67 1025.25 1024.75 1024.43 1024.06
Wind_Speed
10 9 9 8 7 7 7 6 6 6 7 6 6 5 5 5 4 4 3 4 4 5 4 5 6 5 4 4 4 5 6 6 9 3 3 3 5 5 6 7 7 7 6
9 9 9 8 7 8 7 7 7 7 6 6 6 5 5 5 5 5 4 3 4 6 7 6 6 4 6 5 4 6 7 5 7 11 3 2 4 4 4 7 6 6 5
9 9 7 7 8 8 7 7 7 6 6 6 6 6 5 5 5 4 5 5 4 4 6 7 6 6 5 4 6 6 7 7 5 7 5 2 2 1 4 5 5 5 5
10 9 9 9 9 8 7 7 7 6 7 6 6 6 6 5 5 5 5 5 4 4 4 5 7 6 7 8 6 8 9 8 8 6 4 3 2 2 3 3 2 3 3
11 11 10 8 7 7 7 7 7 7 6 6 6 5 5 5 4 5 5 5 5 5 4 4 5 6 9 8 8 8 10 7 7 7 5 3 2 2 4 2 2 1 2
13 12 10 9 9 9 7 8 7 7 6 6 6 6 6 3 7 8 7 5 5 5 5 4 4 6 8 11 8 12 13 13 10 7 5 7 5 5 3 4 4 2 3
12 10 11 11 11 10 9 9 9 8 6 6 6 6 6 5 7 7 8 5 5 4 4 5 4 3 6 6 6 8 9 7 8 12 12 11 9 12 9 6 4 2 1
12 12 12 12 11 9 10 11 9 8 8 7 6 6 5 5 9 7 8 5 5 5 6 6 6 6 5 7 6 6 5 5 5 4 6 5 4 9 8 3 6 5 2
13 13 13 13 12 12 12 11 9 7 6 7 6 6 7 5 8 8 7 5 4 5 5 6 6 6 7 9 7 7 5 5 5 7 4 9 14 18 13 8 6 5 2
14 14 13 13 13 13 12 10 5 6 6 5 6 6 6 6 8 9 6 3 4 4 4 5 8 8 12 13 8 8 7 8 7 3 3 7 13 15 22 12 10 8 3
11 11 12 12 13 13 10 5 7 6 6 6 6 5 7 6 6 10 9 4 4 3 3 3 3 9 11 13 10 8 8 6 6 5 4 3 4 6 8 7 9 8 6
12 12 10 9 7 6 9 6 6 8 7 6 6 4 3 5 6 8 9 7 5 4 5 3 3 6 9 12 10 7 10 8 5 5 5 5 6 6 7 6 4 2 1
13 13 12 10 9 9 10 8 6 7 8 7 7 7 4 3 3 6 8 8 7 2 2 3 4 5 6 6 11 11 9 5 6 5 7 7 6 4 5 3 3 4 3
13 12 11 12 10 7 6 7 8 8 9 7 7 6 4 3 3 2 2 3 5 4 2 1 2 1 2 2 2 7 5 6 7 7 6 2 4 4 4 4 4 4 3
12 10 10 9 11 9 6 8 9 5 9 10 9 8 7 4 4 6 6 4 4 5 4 2 2 1 1 1 0 3 3 3 5 2 3 3 3 4 4 4 2 3 5
12 10 10 10 9 9 9 6 8 11 10 8 12 9 1 7 10 9 9 9 9 12 3 2 2 2 3 2 2 2 2 5 4 3 3 4 4 5 4 3 2 5 6
14 13 9 10 10 10 10 10 10 8 12 11 13 13 12 9 10 9 8 8 10 5 2 1 2 1 1 1 2 2 2 3 3 3 3 4 4 4 7 5 5 5 6
11 14 12 10 10 10 10 9 9 10 9 5 8 9 12 13 10 10 11 7 3 4 3 3 3 2 2 1 1 1 1 1 1 2 2 3 3 2 3 4 5 5 5
14 10 9 9 9 11 11 10 8 8 8 8 6 6 7 13 14 11 7 4 5 5 4 5 3 4 3 2 2 2 2 2 1 1 1 2 3 3 2 2 3 5 5
14 18 14 11 10 10 10 10 10 9 9 7 6 6 4 5 5 5 4 5 6 5 4 5 4 4 3 3 2 2 3 3 2 1 1 1 2 2 1 2 2 3 3
12 13 17 12 12 11 9 9 10 10 9 6 4 4 9 7 7 7 6 5 5 5 5 5 5 5 4 3 3 3 3 3 3 2 1 1 1 1 2 2 2 3 3
13 13 13 12 10 11 10 10 9 10 9 9 7 8 15 7 7 7 6 6 5 5 3 5 5 5 4 4 3 4 4 4 4 3 2 2 1 1 1 1 2 2 2
13 13 12 11 11 13 11 10 10 10 9 7 7 7 6 6 6 6 6 4 4 4 4 4 5 5 4 4 5 5 4 4 4 4 3 2 2 1 1 1 1 2 2
14 14 14 12 11 10 11 10 9 10 10 7 7 6 6 5 6 6 5 4 5 4 4 4 4 5 4 4 4 4 3 3 3 4 5 4 3 3 2 2 2 3 3
12 13 13 12 11 10 11 10 10 8 8 8 7 6 6 6 6 5 4 4 3 4 4 3 3 4 5 5 4 4 4 4 3 3 3 3 3 5 4 4 4 3 3
11 12 12 10 11 10 10 10 9 9 9 7 7 7 7 7 6 5 4 4 4 3 3 2 3 5 4 3 3 3 4 4 4 5 3 3 3 3 3 5 6 4 5
Wind_Direction
168 162 160 165 166 159 164 164 164 145 151 158 161 162 155 148 161 143 162 159 133 120 117 116 107 113 105 83 79 88 91 115 125 84 59 49 44 64 56 61 54 57 57
162 162 167 157 155 161 161 160 156 155 156 159 164 160 164 166 156 151 156 172 158 137 146 127 129 121 115 104 100 102 111 106 138 131 116 78 59 38 66 82 72 59 61
155 159 154 156 160 165 161 157 158 154 159 159 160 164 175 169 154 158 158 165 181 153 150 154 153 141 132 123 118 117 121 116 133 136 116 98 111 73 66 48 57 58 52
153 157 166 172 174 168 159 155 155 161 159 162 166 173 178 165 159 150 152 179 170 158 161 159 154 162 151 141 131 130 135 132 127 126 103 103 91 80 76 106 75 42 59
161 165 177 168 157 150 155 159 159 158 169 163 158 173 182 166 166 155 159 176 169 158 165 166 154 146 151 151 146 148 146 143 149 149 146 124 158 170 168 155 95 93 32
170 176 166 161 161 164 158 161 158 160 167 161 172 168 173 182 169 170 157 166 172 160 163 166 156 150 166 161 153 164 166 160 162 164 172 186 185 164 134 150 123 154 211
173 170 165 165 169 171 165 161 167 171 160 172 175 168 176 185 169 183 170 159 161 167 158 153 139 141 158 161 161 169 168 185 179 181 187 191 174 181 153 152 166 158 177
177 174 171 170 173 163 165 173 168 168 172 168 173 172 169 189 180 172 167 160 166 173 170 169 163 164 173 155 151 169 185 202 202 187 198 180 139 154 171 165 154 110 68
184 181 177 173 170 170 175 176 173 163 170 172 168 169 169 182 175 167 164 169 175 186 179 173 169 173 182 166 168 178 185 191 196 190 161 138 146 156 150 125 159 154 192
185 180 173 175 177 180 178 174 152 163 165 149 164 167 165 164 172 169 175 161 180 185 184 180 185 179 175 181 181 169 196 210 175 172 142 151 159 170 170 184 161 180 143
167 169 174 174 173 177 168 155 150 138 142 156 160 163 161 157 167 178 173 165 181 168 191 199 204 194 185 187 190 186 201 152 175 152 135 147 152 177 191 199 185 182 176
156 159 163 163 158 153 157 142 147 145 143 152 150 143 152 159 156 188 174 175 188 171 209 215 222 205 195 197 193 193 156 140 144 155 163 176 188 197 200 201 178 166 106
156 163 156 146 147 151 152 151 145 149 164 167 175 172 165 142 136 191 181 176 191 173 185 216 227 215 215 206 203 173 153 157 158 169 196 204 200 182 135 134 128 144 126
160 159 154 153 143 139 133 149 157 169 172 169 172 176 167 141 161 166 179 174 200 184 195 208 188 165 178 167 130 169 177 176 181 195 206 179 124 145 174 159 177 179 198
151 147 148 145 149 148 152 160 168 180 178 173 182 182 164 172 202 177 177 183 183 175 123 97 99 109 115 145 151 167 158 158 191 170 150 158 158 162 174 157 156 168 209
148 151 157 153 150 149 148 122 122 155 162 157 169 158 69 137 154 172 184 184 167 155 101 147 148 166 173 180 193 174 166 188 189 156 163 170 178 184 167 154 148 199 223
156 152 149 152 151 151 151 144 133 106 115 131 131 128 127 137 151 149 152 145 147 135 106 108 109 128 134 153 178 157 192 197 155 178 175 181 175 176 170 183 192 203 221
149 153 151 153 151 148 147 141 133 135 135 128 102 123 130 132 130 126 119 104 81 57 73 87 91 91 73 58 101 115 133 75 136 138 143 160 171 163 181 193 195 208 216
146 152 149 146 149 145 138 134 131 132 132 127 120 98 127 122 107 109 109 101 115 97 92 88 82 77 68 65 70 81 91 112 119 105 136 150 166 167 194 198 207 210 208
149 145 146 144 142 141 142 142 140 140 139 136 141 140 144 111 110 101 91 103 105 100 97 95 86 78 70 61 52 63 74 61 57 62 81 130 156 149 175 192 203 221 219
145 141 142 139 143 144 145 157 150 141 133 135 125 151 139 121 116 112 109 97 96 98 97 93 93 82 68 56 53 60 70 69 61 52 48 60 109 140 190 189 204 217 235
148 144 141 142 136 139 151 147 146 132 136 134 137 131 118 107 108 105 99 91 80 73 60 89 85 71 55 57 53 56 57 60 48 32 29 31 40 58 189 212 216 217 231
142 139 133 136 137 141 145 138 137 130 129 134 124 108 100 100 100 97 92 79 69 62 37 56 73 68 35 28 45 42 56 33 3 7 13 15 21 6 316 267 246 241 240
140 137 139 130 137 146 135 126 124 128 131 118 102 95 97 91 88 84 80 77 75 59 52 63 69 74 54 50 44 44 41 13 0 5 1 351 344 334 313 281 254 258 260
133 136 133 132 142 127 125 125 125 122 116 116 114 110 105 106 100 93 86 85 81 77 60 56 67 84 78 71 50 36 16 20 36 34 25 5 328 325 317 302 289 282 262
124 127 127 126 123 128 129 128 124 125 124 121 121 123 127 123 118 116 114 105 92 74 66 38 43 43 36 37 20 33 23 348 41 43 51 41 13 344 342 322 316 305 288